Regional Weather Roundup
Issued by NWS Upton, NY

Current Version | Previous Version | Text Only | Print | Product List | Glossary On
Versions: 1 2 3 4 5 6 7 8 9 10 11 12 13 14 15 16 17 18 19 20 21 22 23 24 25 26 27 28 29 30 31 32 33 34 35 36 37 38 39 40 41 42 43 44 45 46 47 48 49 50
000
ASUS41 KOKX 251505
RWROKX

REGIONAL WEATHER ROUNDUP
NATIONAL WEATHER SERVICE NEW YORK NY
1100 AM EDT FRI JUL 25 2014

NOTE: "FAIR" INDICATES FEW OR NO CLOUDS BELOW 12,000 FEET WITH NO
SIGNIFICANT WEATHER AND/OR OBSTRUCTIONS TO VISIBILITY.

NYZ071-072-176-178-NJZ106-104-251600-
NEW YORK CITY METRO AREA


CITY           SKY/WX    TMP DP  RH WIND       PRES   REMARKS
CENTRAL PARK   SUNNY     74  52  46 VRB3      30.05F
LAGUARDIA APRT NOT AVBL
KENNEDY INTL   MOSUNNY   78  52  40 NE6       30.02F
NEWARK/LIBERTY MOSUNNY   77  54  44 N7        30.02F
BRNX BOT. GARD   N/A     75  55  50 W8        30.04F
TETERBORO      SUNNY     78  52  40 N5        30.01F
$$

NYZ177-179-078>081-251600-
LONG ISLAND NEW YORK

CITY           SKY/WX    TMP DP  RH WIND       PRES   REMARKS
FARMINGDALE    SUNNY     75  50  41 NE10      30.01F
ISLIP          MOSUNNY   77  50  38 NE7       29.99F
SHIRLEY        SUNNY     77  52  41 VRB5      30.01F
WESTHAMPTON    SUNNY     76  52  43 N9        30.02F
MONTAUK POINT    N/A     73  56  54 NW6       30.01S
$$

NYZ052-065-067-251600-
HUDSON VALLEY

CITY           SKY/WX    TMP DP  RH WIND       PRES   REMARKS
WHITE PLAINS   SUNNY     73  53  49 NE6       30.02F
NEWBURGH       SUNNY     66  59  77 W5        30.06F
MONTGOMERY     SUNNY     72  54  53 CALM      30.05S
POUGHKEEPSIE   SUNNY     71  54  54 CALM      30.03F
ALBANY         MOSUNNY   71  55  56 CALM      30.03F
$$

NJZ001-105-106-008-010-013-015-019>022-104-251600-
NEW JERSEY

CITY           SKY/WX    TMP DP  RH WIND       PRES   REMARKS
NEWARK/LIBERTY MOSUNNY   77  54  44 N7        30.02F
TETERBORO      SUNNY     78  52  40 N5        30.01F
CALDWELL       SUNNY     74  53  48 VRB3      30.03F
MORRISTOWN     SUNNY     75  54  46 NE5       30.04S
SOMERVILLE     NOT AVBL
LINDEN         FAIR      78  54  42 N6        30.04S
SUSSEX         SUNNY     74  54  49 CALM      30.05S
ANDOVER          N/A     73  57  57 CALM      30.06S
TRENTON        SUNNY     76  56  49 N3        30.03S
MILLVILLE      SUNNY     76  58  53 NE5       30.04R
ATLANTIC CITY  SUNNY     77  61  57 VRB3      30.02S
WRIGHTSTOWN    SUNNY     76  59  55 VRB2      30.01S
TOMS RIVER     SUNNY     77  55  47 E7        30.02S
BELMAR         SUNNY     75  54  46 NE6       30.02S
$$

PAZ047>061-062-071-251600-
EASTERN PENNSYLVANIA

CITY           SKY/WX    TMP DP  RH WIND       PRES   REMARKS
PHILADELPHIA   MOSUNNY   76  55  48 NW5       30.04S
ALLENTOWN      SUNNY     72  54  53 CALM      30.06S
SCRANTON       SUNNY     69  52  54 CALM      30.09S
$$

CTZ002-004>006-009-010-012-RIZ004-006-007-MAZ004-011-015-251600-
SOUTHERN NEW ENGLAND
 IN CT

CITY           SKY/WX    TMP DP  RH WIND       PRES   REMARKS
BRADLEY INTL   MOSUNNY   74  54  49 VRB3      30.00F
HARTFORD       SUNNY     73  54  51 N7        30.00F
DANBURY        SUNNY     72  54  53 VRB3      30.04F
WTRBRY/OXFORD  SUNNY     70  55  60 CALM      30.05F
BRIDGEPORT     SUNNY     77  53  43 NE8       30.01F
MERIDEN        SUNNY     75  54  47 N8        30.01F
NEW HAVEN      SUNNY     79  53  40 N9        30.00F
CHESTER        FAIR      72  54  53 N9        30.02F
GROTON         SUNNY     74  53  48 N9G18     29.99S
WILLIMANTIC    SUNNY     74  51  44 NE8       30.01F

 IN RI

CITY           SKY/WX    TMP DP  RH WIND       PRES   REMARKS
PROVIDENCE     MOSUNNY   75  53  46 N7        29.99S
BLOCK ISLAND   SUNNY     70  55  60 NW9       30.00S
WESTERLY       SUNNY     75  54  47 VRB7      30.00S

 IN MA

CITY           SKY/WX    TMP DP  RH WIND       PRES   REMARKS
BOSTON         MOSUNNY   73  53  49 SE7       29.98R
WORCESTER      SUNNY     70  52  52 VRB5      30.02F
WESTFIELD      SUNNY     74  56  53 E3        30.01F
PROVINCETOWN   SUNNY     66  59  77 CALM      29.99R
NANTUCKET      MOSUNNY   72  61  68 N8        29.97R
$$

ANZ330-335-338-340-345-350-353-355-251600-
COASTAL MARINE OBSERVATIONS


STATION/POSITION TIME  SKY/WX   TEMP    WIND        PRES    VSBY  WAVE
                                AIR SEA DIR/SP/G                  HT/PER
                 (UTC)          (F)     (DEG/KT/KT) (MB)    (MI)  (FT/S)
NY HARB ENTRANCE NOT AVBL
4S FIRE IS       NOT AVBL
23SW MTP         1500            70 71              1015.4          2/ 8
HUDSON CANYON    1500            72 74   30/ 10/ 12 1015.4          3/ 8
EXECUTION ROCKS  1500            72 73   70/  4/  8   N/A
WESTERN LI SOUND 1500            71     330/  4/  6   N/A           1
CENTRAL LI SOUND 1400            69 71  280/  6/  8   N/A           1
EASTERN LI SOUND 1400            71 67  360/  8/ 12   N/A
ROBBINS REEF     1500            73      30/  8/ 10   N/A
$$


>>>>>>>>>>>>>>>>>>>>>>>>>>>> KEY <<<<<<<<<<<<<<<<<<<<<<<<<<<
>                                                          <
>     SKY/WX - SKY CONDITION/PRESENT WEATHER               <
>     TMP    - TEMPERATURE IN FAHRENHEIT                   <
>     DP     - DEWPOINT IN FAHRENHEIT                      <
>     RH     - RELATIVE HUMIDITY IN PERCENT                <
>     WIND   - DIRECTION AND SPEED IN MPH                  <
>     PRES   - MEAN SEA LEVEL PRESSURE IN INCHES OF HG     <
>     WCI    - WIND CHILL INDEX                            <
>     VSB    - VISIBILITY IN MILES                         <
>     HX     - HEAT INDEX                                  <
>     TC     - TEMPERATURE IN CELSIUS                      <
>     VRB    - VARIABLE WIND DIRECTION                     <
>                                                          <
>>>>>>>>>>>>>>>>>>>>>>>>>>>> KEY <<<<<<<<<<<<<<<<<<<<<<<<<<<





USA.gov is the U.S. government's official web portal to all federal, state and local government web resources and services.